Regional Weather Roundup
Issued by NWS

Home | Current Version | Previous Version | Graphics & Text | Print | Product List | Glossary On
Versions: 1 2 3 4 5 6 7 8 9 10 11 12 13 14 15 16 17 18 19 20 21 22 23 24 25 26 27 28 29 30 31 32 33 34 35 36 37 38 39 40 41 42 43 44 45 46 47 48 49 50
000
ASUS43 KIND 220759
RWRIN

WEATHER ROUNDUP FOR INDIANA
NATIONAL WEATHER SERVICE INDIANAPOLIS IN
300 AM EST WED NOV 22 2017

NOTE: "FAIR" INDICATES FEW OR NO CLOUDS BELOW 12,000 FEET WITH NO
SIGNIFICANT WEATHER AND/OR OBSTRUCTIONS TO VISIBILITY.

* - STATION DOES NOT REPORT WEATHER SUCH AS PRECIPITATION OR FOG.

+ - STATION NOT QUALITY CONTROLLED BY THE NATIONAL WEATHER SERVICE.
    USE DATA WITH CAUTION...ESPECIALLY DEWPOINT AND RELATIVE
    HUMIDITY OBSERVATIONS.

INZ001>003-010>013-019-020-220900-
NORTHWEST INDIANA

CITY           SKY/WX    TMP DP  RH WIND       PRES   REMARKS
KNOX *+        CLOUDY    32  25  74 NW9       30.19R WCI  24
MONTICELLO +   CLOUDY    28  19  70 NW8       30.22R WCI  20
RENSSELAER +   CLEAR     27  16  63 W6        30.24R WCI  20

$$

LMZ046-743>745-220900-
SOUTHERN LAKE MICHIGAN

STATION/POSITION TIME  TEMP    WIND        PRES    WAVE
                       AIR SEA DIR/SP/G            HT
                 (UTC) (F)     (DEG/KT/KT) (MB)    (FT)
BURNS HARBOR     0740   32     320/ 10/ 20 1023.4R
MICHIGAN CITY    0730   32     310/ 19/ 22   N/A

$$

INZ004-005-014>016-021>024-220900-
NORTH CENTRAL INDIANA

CITY           SKY/WX    TMP DP  RH WIND       PRES   REMARKS
GOSHEN         CLOUDY    33  23  66 NW9       30.16R WCI  25
PERU/GRISSOM   CLOUDY    31  23  74 NW12      30.18R WCI  21
SOUTH BEND     CLOUDY    32  24  72 N14       30.18R WCI  22
WARSAW +       CLOUDY    32  25  74 NW8       30.17R WCI  25

$$

INZ006>009-017-018-025>027-220900-
NORTHEAST INDIANA

CITY           SKY/WX    TMP DP  RH WIND       PRES   REMARKS
FORT WAYNE     CLOUDY    35  25  66 NW8       30.16R WCI  29
KENDALLVILLE + CLOUDY    32  24  73 N7        30.14R WCI  26

$$

INZ028-029-035-036-043>045-051>053-220900-
WEST CENTRAL INDIANA

CITY           SKY/WX    TMP DP  RH WIND       PRES   REMARKS
CRAWFORDSVL +  CLEAR     25  21  85 NW7       30.20R WCI  17
LAFAYETTE      CLEAR     26  19  74 NW9       30.24R WCI  17
TERRE HAUTE    CLEAR     28  22  78 NW7       30.25R WCI  21

$$

INZ030>032-037>040-046>048-054>057-064-065-220900-
CENTRAL INDIANA

CITY           SKY/WX    TMP DP  RH WIND       PRES   REMARKS
INDIANAPOLIS   PTCLDY    27  22  81 NW9       30.21R WCI  18
-EAGLE CREEK   CLEAR     29  22  75 NW8       30.21R WCI  21
KOKOMO +       CLOUDY    31  24  75 NW12      30.20R WCI  22
MT COMFORT *+  CLEAR     27  25  93 NW7       30.19R WCI  19
SHELBYVILLE    CLEAR     28  22  78 NW7       30.19R WCI  21

$$

INZ033-034-041-042-049-050-058-059-220900-
EAST CENTRAL INDIANA

CITY           SKY/WX    TMP DP  RH WIND       PRES   REMARKS
MUNCIE         CLOUDY    32  25  75 NW9       30.17R WCI  24
RICHMOND +     CLEAR     28  27  93 NW6       30.15R WCI  22

$$

INZ060-061-067>069-081>083-085>088-220900-
SOUTHWEST INDIANA

CITY           SKY/WX    TMP DP  RH WIND       PRES   REMARKS
EVANSVILLE     CLEAR     31  24  75 NW8       30.27R WCI  23
HUNTINGBURG +  CLEAR     29  24  82 NW5       30.25R WCI  24

$$

INZ062-063-066-070>080-084-089>092-220900-
SOUTH CENTRAL AND SOUTHEAST INDIANA

CITY           SKY/WX    TMP DP  RH WIND       PRES   REMARKS
BLOOMINGTON    CLEAR     29  21  72 NW5       30.21R WCI  24
MADISON *+     CLEAR     32  25  74 NW3       30.21R
SEYMOUR +      CLEAR     30  23  74 NW6       30.21R WCI  24

$$




USA.gov is the U.S. government's official web portal to all federal, state and local government web resources and services.